Yuma MCAS, AZ

4:08 PM MST on May 22, 2017 (GMT -0700)
Yuma Marine Corps Air Station

Weather History for KNYL - July, 2013

Change the Weather History Date:

Sunday, July 7, 2013

  Actual Average Record
Temperature  
Mean Temperature 99 °F 94 °F  
Max Temperature 114 °F 107 °F 117 °F (1942)
Min Temperature 83 °F 81 °F 65 °F (1915)
Degree Days  
Heating Degree Days 0 0  
Month to date heating degree days 0 0  
Since 1 June heating degree days 0 0  
Since 1 July heating degree days 0 0  
Cooling Degree Days 34 29  
Month to date cooling degree days 228 199  
Year to date cooling degree days 2094 1832  
Since 1 June cooling degree days 1033 920  
Growing Degree Days 48 (Base 50)    
Moisture  
Dew Point 48 °F    
Average Humidity 22    
Maximum Humidity 34    
Minimum Humidity 9    
Precipitation  
Precipitation 0.00 in 0.00 in 0.36 in (1950)
Month to date precipitation T 0.02  
Year to date precipitation 1.11 1.35  
Sea Level Pressure  
Sea Level Pressure 29.64 in    
Wind  
Wind Speed 5 mph (SW)    
Max Wind Speed 13 mph    
Max Gust Speed 16 mph    
Visibility 10 miles    
Events      
T = Trace of Precipitation, MM = Missing Value Source: NWS Daily Summary

Daily Weather History Graph

Daily Weather History Graph

Search for Another Location

Airport or City:

Trip Planner

Search our weather history database for the weather conditions in past years. The results will help you decide how hot, cold, wet, or windy it might be!

Date:

Astronomy

Jul. 07, 2013 Rise Set
Actual Time 5:37 AM MST 7:49 PM MST
Civil Twilight 5:09 AM MST 8:17 PM MST
Nautical Twilight 4:34 AM MST 8:52 PM MST
Astronomical Twilight 3:57 AM MST 9:29 PM MST
Moon 5:13 AM MST (7/7) 7:20 PM MST (7/7)
Length of Visible Light 15h 08m
Length of Day
14h 12m
Waning Crescent, 0% of the Moon is Illuminated
Jul 7
Waning Crescent
Jul 8
New
Jul 15
First Quarter
Jul 22
Full
Jul 29
Last Quarter

Hourly Weather History & Observations

Time (MST) Temp. Heat Index Dew Point Humidity Pressure Visibility Wind Dir Wind Speed Gust Speed Precip Events Conditions
12:57 AM 84.9 °F 83.2 °F 53.1 °F 33% 29.63 in 10.0 mi Calm Calm - N/A   Clear
1:57 AM 84.9 °F - 51.1 °F 31% 29.62 in 10.0 mi South 5.8 mph - N/A   Clear
2:57 AM 84.0 °F - 52.0 °F 33% 29.62 in 10.0 mi South 3.5 mph - N/A   Clear
3:57 AM 84.9 °F - 50.0 °F 30% 29.62 in 10.0 mi WSW 3.5 mph - N/A   Clear
4:57 AM 84.9 °F - 48.9 °F 29% 29.63 in 10.0 mi Calm Calm - N/A   Partly Cloudy
5:57 AM 82.9 °F - 48.9 °F 31% 29.65 in 10.0 mi Calm Calm - N/A   Partly Cloudy
6:57 AM 87.1 °F - 51.1 °F 29% 29.67 in 10.0 mi Calm Calm - N/A   Clear
7:57 AM 91.0 °F - 48.0 °F 23% 29.69 in 10.0 mi South 4.6 mph - N/A   Clear
8:57 AM 93.2 °F - 51.8 °F 24% 29.69 in 10.0 mi South 5.8 mph - N/A   Partly Cloudy
9:57 AM 96.8 °F - 46.4 °F 18% 29.69 in 10.0 mi South 5.8 mph - N/A   Partly Cloudy
10:57 AM 100.9 °F - 45.0 °F 15% 29.69 in 10.0 mi Variable 3.5 mph - N/A   Partly Cloudy
11:57 AM 105.1 °F - 46.0 °F 14% 29.68 in 10.0 mi SW 8.1 mph - N/A   Partly Cloudy
12:57 PM 108.0 °F - 44.1 °F 12% 29.66 in 10.0 mi WSW 5.8 mph - N/A   Partly Cloudy
1:57 PM 109.0 °F - 42.1 °F 10% 29.64 in 10.0 mi Variable 5.8 mph - N/A   Partly Cloudy
2:57 PM 111.0 °F - 43.0 °F 10% 29.61 in 10.0 mi SSW 9.2 mph - N/A   Partly Cloudy
3:57 PM 111.0 °F - 42.1 °F 10% 29.59 in 10.0 mi WSW 4.6 mph - N/A   Scattered Clouds
4:57 PM 113.0 °F - 41.0 °F 9% 29.57 in 10.0 mi West 9.2 mph - N/A   Scattered Clouds
5:57 PM 113.0 °F - 41.0 °F 9% 29.57 in 10.0 mi WNW 6.9 mph - N/A   Scattered Clouds
6:57 PM 109.9 °F - 46.0 °F 12% 29.57 in 10.0 mi WNW 5.8 mph - N/A   Scattered Clouds
7:57 PM 107.1 °F - 48.9 °F 14% 29.59 in 10.0 mi West 5.8 mph - N/A   Scattered Clouds
8:57 PM 105.1 °F - 50.0 °F 16% 29.61 in 10.0 mi Calm Calm - N/A   Mostly Cloudy
9:57 PM 102.0 °F - 48.9 °F 17% 29.64 in 10.0 mi West 4.6 mph - N/A   Scattered Clouds
10:57 PM 96.1 °F 95.2 °F 57.9 °F 28% 29.67 in 10.0 mi SSW 6.9 mph - N/A   Partly Cloudy
11:57 PM 93.9 °F 93.6 °F 60.1 °F 32% 29.68 in 10.0 mi SSE 9.2 mph - N/A   Scattered Clouds